Time,TemperatureF,DewpointF,PressureIn,WindDirection,WindDirectionDegrees,WindSpeedMPH,WindSpeedGustMPH,Humidity,HourlyPrecipIn,Conditions,Clouds,dailyrainin,SoftwareType,DateUTC
2013-03-06 00:07:00,36.4,24.0,29.72,East,84,2.0,10.0,62,0.00,,,0.00,weatherlink.com 1.10,2013-03-06 05:07:00,
2013-03-06 00:22:00,36.4,25.0,29.72,South,175,8.0,9.0,63,0.00,,,0.00,weatherlink.com 1.10,2013-03-06 05:22:00,
2013-03-06 00:38:00,35.3,28.0,29.72,West,269,2.0,14.0,74,0.00,,,0.00,weatherlink.com 1.10,2013-03-06 05:38:00,
2013-03-06 00:53:00,34.0,29.0,29.72,South,171,9.0,12.0,81,0.00,,,0.00,weatherlink.com 1.10,2013-03-06 05:53:00,
2013-03-06 01:08:00,33.1,30.0,29.72,East,92,3.0,11.0,87,0.00,,,0.00,weatherlink.com 1.10,2013-03-06 06:08:00,
2013-03-06 01:23:00,32.5,30.0,29.73,ESE,115,1.0,9.0,90,0.00,,,0.00,weatherlink.com 1.10,2013-03-06 06:23:00,
2013-03-06 01:38:00,32.3,30.0,29.73,NW,306,1.0,6.0,91,0.00,,,0.00,weatherlink.com 1.10,2013-03-06 06:38:00,
2013-03-06 01:53:00,32.2,30.0,29.73,East,90,0.0,6.0,92,0.00,,,0.00,weatherlink.com 1.10,2013-03-06 06:53:00,
2013-03-06 02:08:00,32.1,30.0,29.73,ESE,105,0.0,3.0,93,0.00,,,0.00,weatherlink.com 1.10,2013-03-06 07:08:00,
2013-03-06 02:23:00,32.0,31.0,29.74,West,259,0.0,0.0,94,0.00,,,0.00,weatherlink.com 1.10,2013-03-06 07:23:00,
2013-03-06 02:38:00,31.9,30.0,29.74,ESE,116,0.0,1.0,94,0.00,,,0.00,weatherlink.com 1.10,2013-03-06 07:38:00,
2013-03-06 02:53:00,31.8,30.0,29.74,ESE,115,0.0,0.0,94,0.00,,,0.00,weatherlink.com 1.10,2013-03-06 07:53:00,
2013-03-06 03:08:00,31.7,30.0,29.74,East,101,0.0,0.0,94,0.00,,,0.00,weatherlink.com 1.10,2013-03-06 08:08:00,
2013-03-06 03:23:00,31.7,30.0,29.74,ESE,108,0.0,0.0,94,0.00,,,0.00,weatherlink.com 1.10,2013-03-06 08:23:00,
2013-03-06 03:38:00,31.7,31.0,29.75,ESE,108,0.0,0.0,95,0.00,,,0.00,weatherlink.com 1.10,2013-03-06 08:38:00,
2013-03-06 03:53:00,31.7,31.0,29.76,ESE,108,0.0,0.0,95,0.00,,,0.00,weatherlink.com 1.10,2013-03-06 08:53:00,
2013-03-06 04:08:00,31.7,31.0,29.77,ESE,108,0.0,0.0,95,0.00,,,0.00,weatherlink.com 1.10,2013-03-06 09:08:00,
2013-03-06 04:23:00,31.7,31.0,29.77,ESE,108,0.0,0.0,95,0.00,,,0.00,weatherlink.com 1.10,2013-03-06 09:23:00,
2013-03-06 04:38:00,31.7,31.0,29.78,ESE,108,0.0,0.0,95,0.00,,,0.00,weatherlink.com 1.10,2013-03-06 09:38:00,
2013-03-06 04:53:00,31.7,31.0,29.79,ESE,108,0.0,0.0,95,0.00,,,0.00,weatherlink.com 1.10,2013-03-06 09:53:00,
2013-03-06 05:08:00,31.7,31.0,29.80,ESE,108,0.0,0.0,95,0.00,,,0.00,weatherlink.com 1.10,2013-03-06 10:08:00,
2013-03-06 05:23:00,31.9,31.0,29.80,ESE,108,0.0,0.0,95,0.00,,,0.00,weatherlink.com 1.10,2013-03-06 10:23:00,
2013-03-06 05:38:00,31.9,31.0,29.81,ESE,108,0.0,0.0,96,0.00,,,0.00,weatherlink.com 1.10,2013-03-06 10:38:00,
2013-03-06 05:53:00,31.9,31.0,29.82,ESE,108,0.0,0.0,96,0.00,,,0.00,weatherlink.com 1.10,2013-03-06 10:53:00,
2013-03-06 06:08:00,31.9,31.0,29.82,ESE,108,0.0,0.0,95,0.00,,,0.00,weatherlink.com 1.10,2013-03-06 11:08:00,
2013-03-06 06:23:00,31.9,31.0,29.84,ESE,108,0.0,0.0,95,0.00,,,0.00,weatherlink.com 1.10,2013-03-06 11:23:00,
2013-03-06 06:38:00,31.8,31.0,29.84,ESE,108,0.0,0.0,95,0.00,,,0.00,weatherlink.com 1.10,2013-03-06 11:38:00,
2013-03-06 06:53:00,31.7,31.0,29.85,ESE,108,0.0,0.0,95,0.00,,,0.00,weatherlink.com 1.10,2013-03-06 11:53:00,
2013-03-06 07:08:00,31.6,30.0,29.85,ESE,108,0.0,0.0,95,0.00,,,0.00,weatherlink.com 1.10,2013-03-06 12:08:00,
2013-03-06 07:23:00,31.7,31.0,29.86,ESE,108,0.0,0.0,95,0.00,,,0.00,weatherlink.com 1.10,2013-03-06 12:23:00,
2013-03-06 07:39:00,31.8,31.0,29.87,ESE,108,0.0,0.0,96,0.00,,,0.00,weatherlink.com 1.10,2013-03-06 12:39:00,
2013-03-06 07:54:00,31.9,31.0,29.88,ESE,108,0.0,0.0,96,0.00,,,0.00,weatherlink.com 1.10,2013-03-06 12:54:00,
2013-03-06 08:09:00,31.9,31.0,29.89,ESE,108,0.0,0.0,96,0.00,,,0.00,weatherlink.com 1.10,2013-03-06 13:09:00,
2013-03-06 08:24:00,31.9,31.0,29.90,ESE,108,0.0,0.0,95,0.00,,,0.00,weatherlink.com 1.10,2013-03-06 13:24:00,
2013-03-06 08:39:00,32.0,31.0,29.91,ESE,108,0.0,0.0,95,0.00,,,0.00,weatherlink.com 1.10,2013-03-06 13:39:00,
2013-03-06 08:54:00,32.0,31.0,29.91,ESE,108,0.0,0.0,95,0.00,,,0.00,weatherlink.com 1.10,2013-03-06 13:54:00,
2013-03-06 09:09:00,32.1,31.0,29.92,ESE,108,0.0,0.0,95,0.00,,,0.00,weatherlink.com 1.10,2013-03-06 14:09:00,
2013-03-06 09:24:00,32.6,31.0,29.92,ESE,108,0.0,0.0,95,0.00,,,0.00,weatherlink.com 1.10,2013-03-06 14:24:00,
2013-03-06 09:39:00,33.5,32.0,29.93,ESE,109,0.0,0.0,94,0.00,,,0.00,weatherlink.com 1.10,2013-03-06 14:39:00,
2013-03-06 09:54:00,34.5,33.0,29.93,NNW,345,0.0,3.0,92,0.00,,,0.00,weatherlink.com 1.10,2013-03-06 14:54:00,
2013-03-06 10:09:00,34.9,32.0,29.94,North,360,3.0,5.0,89,0.00,,,0.00,weatherlink.com 1.10,2013-03-06 15:09:00,
2013-03-06 10:24:00,35.4,32.0,29.95,NW,311,0.0,4.0,88,0.00,,,0.00,weatherlink.com 1.10,2013-03-06 15:24:00,
2013-03-06 10:54:00,37.7,32.0,29.95,ENE,66,2.0,5.0,80,0.00,,,0.00,weatherlink.com 1.10,2013-03-06 15:54:00,
2013-03-06 11:09:00,37.8,32.0,29.95,ENE,69,7.0,9.0,78,0.00,,,0.00,weatherlink.com 1.10,2013-03-06 16:09:00,
2013-03-06 11:24:00,39.2,33.0,29.96,ENE,74,2.0,4.0,77,0.00,,,0.00,weatherlink.com 1.10,2013-03-06 16:24:00,
2013-03-06 11:39:00,40.4,32.0,29.96,ENE,57,2.0,5.0,73,0.04,,,0.04,weatherlink.com 1.10,2013-03-06 16:39:00,
2013-03-06 11:54:00,40.8,32.0,29.97,NNE,26,1.0,11.0,70,0.10,,,0.10,weatherlink.com 1.10,2013-03-06 16:54:00,
2013-03-06 12:09:00,40.2,30.0,29.97,East,86,3.0,8.0,66,0.16,,,0.16,weatherlink.com 1.10,2013-03-06 17:09:00,
2013-03-06 12:24:00,40.2,30.0,29.97,North,5,2.0,8.0,68,0.21,,,0.21,weatherlink.com 1.10,2013-03-06 17:24:00,
2013-03-06 12:39:00,41.0,30.0,29.97,NNW,348,2.0,8.0,65,0.22,,,0.26,weatherlink.com 1.10,2013-03-06 17:39:00,
2013-03-06 12:54:00,41.5,30.0,29.98,West,275,2.0,10.0,63,0.21,,,0.31,weatherlink.com 1.10,2013-03-06 17:54:00,
2013-03-06 13:09:00,42.2,30.0,29.98,NE,53,3.0,6.0,63,0.19,,,0.35,weatherlink.com 1.10,2013-03-06 18:09:00,
2013-03-06 13:24:00,41.3,29.0,29.98,NNE,15,0.0,8.0,61,0.17,,,0.38,weatherlink.com 1.10,2013-03-06 18:24:00,
2013-03-06 13:39:00,40.9,29.0,29.98,NE,39,2.0,6.0,62,0.15,,,0.41,weatherlink.com 1.10,2013-03-06 18:39:00,
2013-03-06 13:54:00,40.3,28.0,29.99,NE,48,1.0,5.0,63,0.11,,,0.42,weatherlink.com 1.10,2013-03-06 18:54:00,
2013-03-06 14:09:00,40.1,29.0,29.99,ESE,115,3.0,5.0,66,0.09,,,0.44,weatherlink.com 1.10,2013-03-06 19:09:00,
2013-03-06 14:24:00,40.2,29.0,29.99,NE,49,0.0,4.0,64,0.06,,,0.45,weatherlink.com 1.10,2013-03-06 19:24:00,
2013-03-06 14:39:00,40.4,29.0,30.00,East,81,1.0,4.0,64,0.05,,,0.46,weatherlink.com 1.10,2013-03-06 19:39:00,
2013-03-06 14:54:00,40.4,29.0,30.00,NE,36,4.0,5.0,63,0.04,,,0.47,weatherlink.com 1.10,2013-03-06 19:54:00,
2013-03-06 15:10:00,40.3,28.0,30.01,NNE,30,0.0,6.0,63,0.04,,,0.48,weatherlink.com 1.10,2013-03-06 20:10:00,
2013-03-06 15:25:00,40.4,29.0,30.01,East,92,0.0,4.0,63,0.04,,,0.49,weatherlink.com 1.10,2013-03-06 20:25:00,
2013-03-06 15:40:00,40.4,28.0,30.02,ENE,57,0.0,5.0,62,0.04,,,0.50,weatherlink.com 1.10,2013-03-06 20:40:00,
2013-03-06 15:55:00,40.4,29.0,30.02,North,5,3.0,3.0,63,0.03,,,0.50,weatherlink.com 1.10,2013-03-06 20:55:00,
2013-03-06 16:10:00,40.4,29.0,30.03,NNE,14,0.0,2.0,65,0.03,,,0.51,weatherlink.com 1.10,2013-03-06 21:10:00,
2013-03-06 16:25:00,40.0,28.0,30.03,NE,45,0.0,5.0,62,0.02,,,0.51,weatherlink.com 1.10,2013-03-06 21:25:00,
2013-03-06 16:40:00,39.8,28.0,30.04,NNE,19,1.0,4.0,64,0.02,,,0.52,weatherlink.com 1.10,2013-03-06 21:40:00,
2013-03-06 16:55:00,39.7,29.0,30.05,WNW,294,0.0,3.0,65,0.02,,,0.52,weatherlink.com 1.10,2013-03-06 21:55:00,
2013-03-06 17:10:00,39.4,29.0,30.05,WNW,294,0.0,0.0,67,0.01,,,0.52,weatherlink.com 1.10,2013-03-06 22:10:00,
2013-03-06 17:25:00,39.1,29.0,30.06,WNW,294,0.0,2.0,68,0.02,,,0.53,weatherlink.com 1.10,2013-03-06 22:25:00,
2013-03-06 17:40:00,38.8,28.0,30.06,West,281,3.0,4.0,65,0.01,,,0.53,weatherlink.com 1.10,2013-03-06 22:40:00,
2013-03-06 17:55:00,38.6,28.0,30.06,WNW,290,0.0,1.0,66,0.01,,,0.53,weatherlink.com 1.10,2013-03-06 22:55:00,
2013-03-06 18:10:00,38.0,29.0,30.07,WNW,290,0.0,1.0,69,0.01,,,0.53,weatherlink.com 1.10,2013-03-06 23:10:00,
2013-03-06 18:25:00,37.4,29.0,30.07,WNW,290,0.0,0.0,72,0.00,,,0.53,weatherlink.com 1.10,2013-03-06 23:25:00,
2013-03-06 18:40:00,36.6,30.0,30.07,WNW,290,0.0,0.0,76,0.00,,,0.53,weatherlink.com 1.10,2013-03-06 23:40:00,
2013-03-06 18:55:00,36.1,30.0,30.08,WNW,290,0.0,0.0,78,0.00,,,0.53,weatherlink.com 1.10,2013-03-06 23:55:00,
2013-03-06 19:10:00,35.7,30.0,30.09,WNW,290,0.0,0.0,80,0.00,,,0.53,weatherlink.com 1.10,2013-03-07 00:10:00,
2013-03-06 19:25:00,35.3,30.0,30.09,WNW,290,0.0,0.0,82,0.00,,,0.53,weatherlink.com 1.10,2013-03-07 00:25:00,
2013-03-06 19:40:00,34.9,30.0,30.10,WNW,290,0.0,0.0,82,0.00,,,0.53,weatherlink.com 1.10,2013-03-07 00:40:00,
2013-03-06 19:55:00,34.7,30.0,30.10,WNW,290,0.0,0.0,82,0.00,,,0.53,weatherlink.com 1.10,2013-03-07 00:55:00,
2013-03-06 20:10:00,34.8,29.0,30.11,WNW,290,0.0,2.0,79,0.00,,,0.53,weatherlink.com 1.10,2013-03-07 01:10:00,
2013-03-06 20:25:00,35.1,29.0,30.11,WNW,290,0.0,1.0,78,0.00,,,0.53,weatherlink.com 1.10,2013-03-07 01:25:00,
2013-03-06 20:40:00,35.2,29.0,30.11,NW,311,0.0,2.0,78,0.00,,,0.53,weatherlink.com 1.10,2013-03-07 01:40:00,
2013-03-06 20:55:00,35.5,28.0,30.11,NW,311,0.0,2.0,74,0.00,,,0.53,weatherlink.com 1.10,2013-03-07 01:55:00,
2013-03-06 21:10:00,35.9,28.0,30.11,West,269,0.0,2.0,72,0.00,,,0.53,weatherlink.com 1.10,2013-03-07 02:10:00,
2013-03-06 21:25:00,35.9,28.0,30.12,WNW,284,0.0,1.0,72,0.00,,,0.53,weatherlink.com 1.10,2013-03-07 02:25:00,
2013-03-06 21:40:00,35.7,28.0,30.12,WNW,293,0.0,1.0,73,0.00,,,0.53,weatherlink.com 1.10,2013-03-07 02:40:00,
2013-03-06 21:55:00,35.5,28.0,30.12,WNW,293,0.0,0.0,73,0.00,,,0.53,weatherlink.com 1.10,2013-03-07 02:55:00,
2013-03-06 22:10:00,35.1,28.0,30.12,WNW,293,0.0,0.0,75,0.00,,,0.53,weatherlink.com 1.10,2013-03-07 03:10:00,
2013-03-06 22:25:00,34.8,28.0,30.12,WNW,293,0.0,1.0,76,0.00,,,0.53,weatherlink.com 1.10,2013-03-07 03:25:00,
2013-03-06 22:40:00,34.9,28.0,30.12,WNW,293,0.0,2.0,75,0.00,,,0.53,weatherlink.com 1.10,2013-03-07 03:40:00,
2013-03-06 22:55:00,34.8,28.0,30.12,WNW,293,0.0,1.0,76,0.00,,,0.53,weatherlink.com 1.10,2013-03-07 03:55:00,
2013-03-06 23:10:00,34.6,28.0,30.11,WNW,293,0.0,0.0,76,0.00,,,0.53,weatherlink.com 1.10,2013-03-07 04:10:00,
2013-03-06 23:25:00,34.2,28.0,30.12,WNW,293,0.0,0.0,79,0.00,,,0.53,weatherlink.com 1.10,2013-03-07 04:25:00,
2013-03-06 23:40:00,34.1,28.0,30.12,WNW,293,0.0,0.0,79,0.00,,,0.53,weatherlink.com 1.10,2013-03-07 04:40:00,
2013-03-06 23:55:00,34.0,28.0,30.12,WNW,293,0.0,0.0,80,0.00,,,0.53,weatherlink.com 1.10,2013-03-07 04:55:00,